Regional Weather Roundup
Issued by NWS Columbia, SC

Home | Current Version | Previous Version | Text Only | Print | Product List | Glossary On
Versions: 1 2 3 4 5 6 7 8 9 10 11 12 13 14 15 16 17 18 19 20 21 22 23 24 25 26 27 28 29 30 31 32 33 34 35 36 37 38 39 40 41 42 43 44 45 46 47 48 49 50
000
ASUS42 KCAE 161310
RWRCAE
REGIONAL WEATHER ROUNDUP
NATIONAL WEATHER SERVICE COLUMBIA SC
800 AM EST SAT DEC 16 2017

NOTE: "FAIR" INDICATES FEW OR NO CLOUDS BELOW 12,000 FEET WITH NO
SIGNIFICANT WEATHER AND/OR OBSTRUCTIONS TO VISIBILITY.

NOT ALL STATIONS ARE QUALITY CONTROLLED BY THE NATIONAL
WEATHER SERVICE. USE DATA WITH CAUTION...ESPECIALLY
DEWPOINT OBSERVATIONS.

SCZ001>056-GAZ040-063>065-077-161400-
...UPSTATE SOUTH CAROLINA...

CITY           SKY/WX    TMP DP  RH WIND       PRES   REMARKS
ANDERSON       CLOUDY    25  22  88 CALM      30.26R
LIBERTY        CLOUDY    20  19  96 NW3       30.24R
SPARTANBURG    CLOUDY    27  21  80 CALM      30.25R
CLEMSON        CLOUDY    27  25  92 CALM      30.27R
GREENVILLE     CLOUDY    29  21  72 CALM      30.25R
GREENWOOD      CLOUDY    23  22  96 CALM      30.28R
GREER          CLOUDY    26  22  84 CALM      30.25R
ROCK HILL      CLOUDY    23  21  92 SW3       30.26R
CHESTER        MOSUNNY   27  23  86 CALM      30.27R
LAURENS        MOSUNNY   27  23  86 SW3       30.26R


...CENTRAL SOUTH CAROLINA...

CITY           SKY/WX    TMP DP  RH WIND       PRES   REMARKS
COLUMBIA APT   CLOUDY    29  27  92 CALM      30.28R
COLUMBIA OWENS CLOUDY    30  27  88 CALM      30.30R FOG
MCENTIRE ANGB  PTCLDY    26  25  94 CALM      30.28R
ORANGEBURG     CLOUDY    30  26  85 CALM      30.29R
SUMTER SHAW    CLOUDY    28  25  88 CALM      30.26R
NEWBERRY       CLOUDY    27  25  93 CALM      30.30R FOG
AIKEN          FAIR      27  23  86 CALM      30.30R
BARNWELL         N/A     28  25  86 CALM      30.29R
MANNING        FAIR      30  28  93 MISG      30.30R FOG
CAMDEN         FAIR      25  23  93 CALM      30.29R
LANCASTER      MOSUNNY   27  27 100 CALM      30.27R
WINNSBORO      MOSUNNY   32  27  80 E3        30.26R


...EASTERN AND COASTAL SOUTH CAROLINA...

CITY           SKY/WX    TMP DP  RH WIND       PRES   REMARKS
MYRTLE BEACH   CLEAR     34  30  85 CALM      30.31R
N MYRTLE BCH   CLEAR     33  30  88 CALM      30.28R
CONWAY         FAIR      28  28 100 CALM      30.30R FOG
MARION         FAIR      30  28  93 CALM      30.30R FOG
HARTSVILLE     FAIR      28  25  86 CALM      30.28R
FLORENCE       CLOUDY    29  27  92 CALM      30.30R FOG
DARLINGTON     PTCLDY    27  26  96 SW3       30.30R
CHARLESTON APT PTCLDY    33  28  81 N7        30.29R WCI  27
MOUNT PLEASANT FAIR      36  32  87 N3        30.29R
WALTERBORO     SUNNY     30  27  86 NW3       30.31R
BEAUFORT       CLOUDY    37  30  75 NW5       30.30R WCI  33


...EASTERN GEORGIA...

CITY           SKY/WX    TMP DP  RH WIND       PRES   REMARKS
AUGUSTA BUSH F CLOUDY    26  24  92 CALM      30.29R
AUGUSTA DANIEL CLOUDY    30  24  78 CALM      30.28R
THOMSON        CLOUDY    25  22  89 CALM      30.34R
WASHINGTON     FAIR      27  23  86 CALM      30.28R
CLAXTON        FAIR      32  30  94 CALM      30.29S
SYLVANIA       MOSUNNY   30  29  98 CALM      30.31R
STATESBORO     CLOUDY    32  27  83 CALM      30.30R
SAVANNAH       PTCLDY    36  28  73 N6        30.30R WCI  31


...SOUTHERN NORTH CAROLINA...

CITY           SKY/WX    TMP DP  RH WIND       PRES   REMARKS
CHARLOTTE      CLOUDY    28  26  92 CALM      30.25R
MONROE         CLOUDY    24  22  91 CALM      30.24R FOG
WADESBORO      CLOUDY    22  19  89 CALM      30.28R
ASHEVILLE      CLOUDY    30  19  63 N10       30.20R WCI  21

$$



USA.gov is the U.S. government's official web portal to all federal, state and local government web resources and services.